Location: Unspecified
(0.0000°N, 0.0000°E)
Time: 01:45:54
(UTC+00:00)

Envisat - Pass Details

Date: 23 March 2018
Orbit: 764 x 766 km, 98.2° (Epoch: 17 June)

Event Time Altitude Azimuth Distance (km) Brightness Sun altitude
Exits shadow 20:16:28 34° 320° (NW) 1,247 4.3 -32.5°
Drops below altitude 10° 20:19:22 10° 336° (NNW) 2,290 5.7 -33.2°
Sets 20:21:42 0° 340° (NNW) 3,214 6.5 -33.8°
